Weather History for Elizabethton, TN

Change the Weather History Date:

Wednesday, April 9, 2014

  Actual Average (KTRI) Record (KTRI)
Temperature  
Mean Temperature 48 °F 53 °F  
Max Temperature 59 °F 66 °F 83 °F (1942)
Min Temperature 37 °F 41 °F 22 °F (2007)
Degree Days  
Heating Degree Days 17 12  
Month to date heating degree days 116  
Since 1 July heating degree days 4066  
Cooling Degree Days 0 0  
Month to date cooling degree days 0  
Year to date cooling degree days 1  
Moisture  
Dew Point 36 °F    
Average Humidity 69    
Maximum Humidity 93    
Minimum Humidity 31    
Precipitation  
Precipitation 0.00 in 0.12 in 0.71 in (1961)
Month to date precipitation 0.98  
Year to date precipitation 11.24  
Snow  
Snow 0.00 in 0.00 in - ()
Month to date snowfall 0.4  
Since 1 July snowfall 12.6  
Snow Depth -    
Sea Level Pressure  
Sea Level Pressure 29.96 in    
Wind  
Wind Speed 1 mph (West)    
Max Wind Speed 10 mph    
Max Gust Speed 25 mph    
Visibility 10 miles    
Events Rain    
T = Trace of Precipitation, MM = Missing Value Source: NWS Daily Summary

Daily Weather History Graph

Daily Weather History Graph

Search for Another Location

Airport:

Trip Planner

Search our weather history database for the weather conditions in past years. The results will help you decide how hot, cold, wet, or windy it might be!

Date:

Astronomy

Apr. 09, 2014 Rise Set
Actual Time 7:03 AM EDT 7:57 PM EDT
Civil Twilight 6:37 AM EDT 8:23 PM EDT
Nautical Twilight 6:06 AM EDT 8:55 PM EDT
Astronomical Twilight 5:34 AM EDT 9:27 PM EDT
Moon 2:53 PM EDT (4/9) 3:42 AM EDT (4/9)
Length of Visible Light 13h 46m
Length of Day
12h 54m
Waxing Gibbous, 71% of the Moon is Illuminated
Apr 9
Waxing Gibbous
Apr 15
Full
Apr 22
Last Quarter
Apr 29
New
May 6
First Quarter

Hourly Weather History & Observations

Time (EDT) Temp. Windchill Dew Point Humidity Pressure Visibility Wind Dir Wind Speed Gust Speed Precip Events Conditions
12:15 AM 44.6 °F - 39.2 °F 81% 29.78 in 10.0 mi Calm Calm - N/A   Overcast
12:35 AM 42.8 °F - 39.2 °F 87% 29.79 in 10.0 mi Calm Calm - N/A   Mostly Cloudy
12:55 AM 42.8 °F - 39.2 °F 87% 29.79 in 10.0 mi Calm Calm - N/A   Overcast
1:15 AM 42.8 °F - 39.2 °F 87% 29.79 in 10.0 mi Calm Calm - N/A   Overcast
1:35 AM 42.8 °F - 39.2 °F 87% 29.79 in 10.0 mi Calm Calm - N/A   Overcast
1:55 AM 42.8 °F - 39.2 °F 87% 29.79 in 10.0 mi Calm Calm - N/A   Overcast
2:15 AM 42.8 °F - 39.2 °F 87% 29.79 in 10.0 mi Calm Calm - N/A   Overcast
2:35 AM 41.0 °F - 37.4 °F 87% 29.79 in 10.0 mi Calm Calm - N/A   Overcast
2:55 AM 41.0 °F - 37.4 °F 87% 29.79 in 10.0 mi Calm Calm - N/A   Overcast
3:15 AM 39.2 °F - 37.4 °F 93% 29.79 in 10.0 mi Calm Calm - N/A   Mostly Cloudy
3:35 AM 39.2 °F - 37.4 °F 93% 29.80 in 10.0 mi Calm Calm - N/A   Mostly Cloudy
3:55 AM 39.2 °F - 37.4 °F 93% 29.80 in 10.0 mi Calm Calm - N/A   Overcast
4:15 AM 41.0 °F - 39.2 °F 93% 29.80 in 10.0 mi Calm Calm - N/A   Overcast
4:35 AM 41.0 °F - 39.2 °F 93% 29.81 in 10.0 mi Calm Calm - N/A   Overcast
4:55 AM 41.0 °F - 39.2 °F 93% 29.82 in 10.0 mi Calm Calm - N/A   Mostly Cloudy
5:15 AM 41.0 °F - 39.2 °F 93% 29.83 in 10.0 mi Calm Calm - N/A   Mostly Cloudy
5:35 AM 42.8 °F - 39.2 °F 87% 29.83 in 10.0 mi Calm Calm - N/A   Overcast
5:55 AM 41.0 °F - 39.2 °F 93% 29.84 in 10.0 mi Calm Calm - N/A   Overcast
6:35 AM 41.0 °F - 39.2 °F 93% 29.86 in 10.0 mi Calm Calm - N/A   Light Drizzle
6:55 AM 41.0 °F - 39.2 °F 93% 29.88 in 10.0 mi Calm Calm - N/A   Light Drizzle
7:15 AM 42.8 °F - 39.2 °F 87% 29.89 in 10.0 mi Calm Calm - N/A   Overcast
7:35 AM 42.8 °F - 41.0 °F 93% 29.90 in 9.0 mi Calm Calm - N/A Rain Light Rain
7:55 AM 44.6 °F - 42.8 °F 93% 29.91 in 9.0 mi Calm Calm - N/A Rain Light Rain
8:15 AM 44.6 °F - 42.8 °F 93% 29.93 in 10.0 mi Calm Calm - N/A   Light Drizzle
8:35 AM 44.6 °F - 42.8 °F 93% 29.93 in 10.0 mi Calm Calm - N/A   Overcast
8:55 AM 44.6 °F 41.4 °F 42.8 °F 93% 29.94 in 10.0 mi WSW 5.8 mph - N/A   Overcast
9:15 AM 44.6 °F 41.4 °F 42.8 °F 93% 29.95 in 10.0 mi West 5.8 mph - N/A   Overcast
9:35 AM 44.6 °F - 42.8 °F 93% 29.97 in 10.0 mi Calm Calm - N/A   Mostly Cloudy
9:55 AM 44.6 °F - 42.8 °F 93% 29.97 in 10.0 mi Calm Calm - N/A   Light Drizzle
10:15 AM 46.4 °F - 44.6 °F 93% 29.98 in 10.0 mi Calm Calm - N/A   Overcast
10:35 AM 46.4 °F - 44.6 °F 93% 29.99 in 10.0 mi Calm Calm - N/A   Mostly Cloudy
10:55 AM 48.2 °F - 44.6 °F 87% 29.99 in 9.0 mi Calm Calm - N/A   Overcast
11:15 AM 48.2 °F - 44.6 °F 87% 30.00 in 10.0 mi Calm Calm - N/A   Overcast
11:55 AM 48.2 °F - 42.8 °F 82% 30.01 in 10.0 mi Calm Calm - N/A Rain Light Rain
12:15 PM 51.8 °F - 41.0 °F 67% 30.00 in 10.0 mi Calm Calm - N/A   Mostly Cloudy
12:35 PM 51.8 °F - 37.4 °F 58% 30.01 in 10.0 mi Calm Calm - N/A Rain Light Rain
12:55 PM 53.6 °F - 37.4 °F 54% 30.00 in 10.0 mi Calm Calm - N/A   Scattered Clouds
1:15 PM 53.6 °F - 37.4 °F 54% 30.00 in 10.0 mi Calm Calm - N/A   Scattered Clouds
1:35 PM 53.6 °F - 33.8 °F 47% 30.00 in 10.0 mi Calm Calm - N/A   Mostly Cloudy
1:55 PM 55.4 °F - 32.0 °F 41% 30.00 in 10.0 mi WSW 3.5 mph - N/A   Mostly Cloudy
2:15 PM 57.2 °F - 33.8 °F 41% 30.00 in 10.0 mi Calm Calm - N/A   Mostly Cloudy
2:35 PM 59.0 °F - 33.8 °F 39% 30.01 in 10.0 mi WNW 10.4 mph 17.3 mph N/A   Mostly Cloudy
2:55 PM 57.2 °F - 33.8 °F 41% 30.01 in 10.0 mi Calm Calm - N/A   Mostly Cloudy
3:15 PM 57.2 °F - 30.2 °F 36% 30.01 in 10.0 mi West 9.2 mph - N/A   Mostly Cloudy
3:35 PM 57.2 °F - 30.2 °F 36% 30.01 in 10.0 mi West 4.6 mph 19.6 mph N/A   Mostly Cloudy
3:55 PM 57.2 °F - 32.0 °F 38% 30.00 in 10.0 mi West 5.8 mph 20.7 mph N/A   Mostly Cloudy
4:15 PM 55.4 °F - 28.4 °F 36% 30.00 in 10.0 mi Calm Calm - N/A   Mostly Cloudy
4:35 PM 59.0 °F - 30.2 °F 34% 30.00 in 10.0 mi Calm Calm - N/A   Mostly Cloudy
4:55 PM 59.0 °F - 30.2 °F 34% 30.01 in 10.0 mi WSW 10.4 mph 25.3 mph N/A   Mostly Cloudy
5:15 PM 57.2 °F - 28.4 °F 33% 30.01 in 10.0 mi Calm Calm - N/A   Partly Cloudy
5:35 PM 57.2 °F - 28.4 °F 33% 30.01 in 10.0 mi Calm Calm - N/A   Partly Cloudy
5:55 PM 59.0 °F - 28.4 °F 31% 30.01 in 10.0 mi Calm Calm - N/A   Scattered Clouds
6:15 PM 57.2 °F - 28.4 °F 33% 30.02 in 10.0 mi Calm Calm - N/A   Partly Cloudy
6:35 PM 57.2 °F - 28.4 °F 33% 30.02 in 10.0 mi West 3.5 mph 16.1 mph N/A   Partly Cloudy
6:55 PM 57.2 °F - 26.6 °F 31% 30.03 in 10.0 mi Calm Calm - N/A   Partly Cloudy
7:15 PM 57.2 °F - 26.6 °F 31% 30.04 in 10.0 mi West 4.6 mph 19.6 mph N/A   Scattered Clouds
7:35 PM 55.4 °F - 26.6 °F 33% 30.04 in 10.0 mi Calm Calm - N/A   Partly Cloudy
7:55 PM 55.4 °F - 26.6 °F 33% 30.05 in 10.0 mi Calm Calm - N/A   Partly Cloudy
8:15 PM 51.8 °F - 28.4 °F 41% 30.06 in 10.0 mi Calm Calm - N/A   Clear
8:35 PM 46.4 °F - 33.8 °F 62% 30.06 in 10.0 mi Calm Calm - N/A   Clear
8:55 PM 42.8 °F - 33.8 °F 70% 30.07 in 10.0 mi Calm Calm - N/A   Clear
9:15 PM 44.6 °F - 32.0 °F 61% 30.09 in 10.0 mi Calm Calm - N/A   Clear
9:35 PM 42.8 °F - 32.0 °F 66% 30.10 in 10.0 mi Calm Calm - N/A   Clear
9:55 PM 41.0 °F - 32.0 °F 70% 30.11 in 10.0 mi Calm Calm - N/A   Clear
10:15 PM 39.2 °F - 33.8 °F 81% 30.12 in 10.0 mi Calm Calm - N/A   Clear
10:35 PM 39.2 °F - 32.0 °F 75% 30.13 in 10.0 mi Calm Calm - N/A   Clear
10:55 PM 37.4 °F - 33.8 °F 87% 30.13 in 10.0 mi Calm Calm - N/A   Clear
11:15 PM 37.4 °F - 30.2 °F 75% 30.13 in 10.0 mi Calm Calm - N/A   Clear
11:35 PM 37.4 °F - 32.0 °F 81% 30.14 in 10.0 mi Calm Calm - N/A   Clear
11:55 PM 37.4 °F - 30.2 °F 75% 30.14 in 10.0 mi Calm Calm - N/A   Clear